Regional Weather Roundup
Issued by NWS

Home | Current Version | Previous Version | Graphics & Text | Print | Product List | Glossary On
Versions: 1 2 3 4 5 6 7 8 9 10 11 12 13 14 15 16 17 18 19 20 21 22 23 24 25 26 27 28 29 30 31 32 33 34 35 36 37 38 39 40 41 42 43 44 45 46 47 48 49 50
000
ASUS43 KMPX 211410
RWRMN
WEATHER ROUNDUP FOR MINNESOTA
NATIONAL WEATHER SERVICE TWIN CITIES/CHANHASSEN MN
900 AM CDT TUE APR 21 2015


NOTE: "FAIR" INDICATES FEW OR NO CLOUDS BELOW 12,000 FEET WITH NO
SIGNIFICANT WEATHER AND/OR OBSTRUCTIONS TO VISIBILITY. N/A MEANS
CURRENT SKY AND/OR WEATHER CONDITIONS ARE NOT AVAILABLE.

MNZ060>063-068>070-211500-
   Twin Cities Metro

CITY           SKY/WX    TMP DP  RH WIND       PRES   REMARKS
TWIN CITIES    CLOUDY    37  25  61 W17G36    29.56R
ST PAUL        CLOUDY    37  25  61 W21G30    29.56S
CRYSTAL        CLOUDY    37  25  61 NW17G28   29.54S
BLAINE         FLURRIES  37  28  70 W24G32    29.54R
LAKEVILLE      CLOUDY    36  25  64 W21G26    29.56F
EDEN PRAIRIE   CLOUDY    37  25  61 W20G31    29.56S
SOUTH ST PAUL  CLOUDY    37  25  62 W15G24    29.56R
LAKE ELMO      CLOUDY    36  27  69 W18       29.55S
$$
MNZ001>005-007-008-013>017-022>024-027-028-211500-
   Northwest Minnesota

CITY           SKY/WX    TMP DP  RH WIND       PRES   REMARKS
BEMIDJI        LGT SNOW  30  24  79 NW17G28   29.54R WCI  18
HALLOCK        PTSUNNY   30  27  86 N22G30    29.71R FOG     WCI  17
ROSEAU         CLOUDY    28  25  86 N28       29.61R HAZE    WCI  13
WARROAD        LGT SNOW  28  23  80 NW17G26   29.60R WCI  16
THIEF RVR FALL CLOUDY    30  27  86 NW21G30   29.64R WCI  17
CROOKSTON      FLURRIES  32  28  86 N25G33    29.69R WCI  19
FOSSTON        LGT SNOW  28  25  86 NW18G29   29.62R WCI  16
DETROIT LAKES  MIX PCPN  32  28  86 NW22G33   29.62S WCI  19
MOORHEAD       CLOUDY    34  27  75 NW35      29.69S WCI  19
PARK RAPIDS    FLURRIES  32  23  69 NW20      29.54S WCI  20
MAHNOMEN       FLURRIES  30  27  86 NW26G33   29.62R WCI  16
$$
MNZ006-009>011-018-025>026-211500-
   North Central Minnesota

CITY           SKY/WX    TMP DP  RH WIND       PRES   REMARKS
BAUDETTE       LGT SNOW  28  22  78 N21G32    29.53S WCI  15
FLAG ISLAND    LGT SNOW  27  25  93 N23G32    29.58R WCI  12
INTL FALLS     LGT SNOW  27  21  80 N16G23    29.47R WCI  14
WASKISH        LGT SNOW  28  27  93 NW14G25   29.54R WCI  17
BIG FORK       LGT SNOW  28  25  86 NW9G18    29.47S WCI  20
LONGVILLE      LGT SNOW  30  25  80 NW9G24    29.50R WCI  22
GRAND RAPIDS   CLOUDY    28  23  80 NW22      29.46R WCI  15
CRANE LAKE     CLOUDY    27  25  93 NW13G18   29.43S WCI  16
ORR            MIX PCPN  27  23  86 NW13G18   29.40S WCI  16
COOK           LGT SNOW  27  23  86 NW13G18   29.42R WCI  16
$$
MNZ012-019>021-037-211500-
   Northeast Minnesota

CITY           SKY/WX    TMP DP  RH WIND       PRES   REMARKS
DULUTH         FLURRIES  32  25  75 NW16G25   29.38S WCI  21
ELY            CLOUDY    27  23  86 NW10G20   29.36R FOG     WCI  17
HIBBING        LGT SNOW  29  23  78 NW18      29.42R WCI  16
EVELETH        MIX PCPN  30  25  80 NW14G28   29.41R WCI  20
DULUTH HARBOR  CLOUDY    36  30  80 W16       29.43R
TWO HARBORS    FLURRIES  36  28  75 W7G17     29.35S
SILVER BAY     PTSUNNY   36  27  69 NW8G16    29.33S
GRAND MARAIS     N/A     36  25  64 VRB3      29.32R
G MARAIS ARPRT CLOUDY    28  19  69 NW10G21   29.26S WCI  19
$$
MNZ029>031-032-039>041-046>048-054>057-064-211500-
   West Central Minnesota

CITY           SKY/WX    TMP DP  RH WIND       PRES   REMARKS
FERGUS FALLS   CLOUDY    30  27  86 N26G38    29.68R WCI  16
WHEATON        CLOUDY    34  21  60 NW29G37   29.72S WCI  20
MORRIS         PTSUNNY   34  28  80 NW30G36   29.66S WCI  20
ALEXANDRIA     LGT SNOW  32  28  85 NW15      29.61R FOG     WCI  22
ELBOW LAKE     CLOUDY    32  29  88 NW23G31   29.65R WCI  19
WADENA         MIX PCPN  30  25  80 NW17G25   29.57S WCI  18
GLENWOOD       FLURRIES  34  28  80 NW24G35   29.61S WCI  21
APPLETON       MOSUNNY   36  27  69 NW22G37   29.69S
BENSON         LGT SNOW  34  30  86 N14       29.67R WCI  24
ORTONVILLE     CLOUDY    36  25  64 NW22G32   29.71R
MADISON        CLOUDY    37  27  65 NW22G31   29.71R
WILLMAR        FAIR      36  30  80 NW23G30   29.65S
$$
MNZ033>034-036-042>043-049>051-058-059-211500-
   Central Minnesota

CITY           SKY/WX    TMP DP  RH WIND       PRES   REMARKS
ST CLOUD       CLOUDY    36  23  59 NW30      29.54F
SAUK CENTRE    CLOUDY    33  26  75 NW23G31   29.58S WCI  21
PAYNESVILLE    CLOUDY    32  25  76 W18G33    29.60S WCI  20
AITKIN         LGT SNOW  34  28  80 NW3       29.48R VSB 1
PINE RIVER     FLURRIES  32  25  74 NW16G26   29.56R WCI  21
BRAINERD       CLOUDY    33  24  69 NW17G31   29.53R WCI  22
STAPLES        CLOUDY    30  23  74 NW20G28   29.56R WCI  18
LONG PRAIRIE   CLOUDY    32  27  80 NW17G30   29.58R WCI  21
LITTLE FALLS   PTSUNNY   34  23  64 NW15G24   29.55R WCI  24
LITCHFIELD     CLOUDY    36  28  75 W18G30    29.60S
BUFFALO        CLOUDY    36  28  72 W17G28    29.58S
MAPLE LAKE     CLOUDY    36  29  76 W18G28    29.58R
$$
MNZ037-044-045-052-053-211500-
   East Central Minnesota

CITY           SKY/WX    TMP DP  RH WIND       PRES   REMARKS
PRINCETON      CLOUDY    37  27  65 W20G26    29.53S
MORA           LGT SNOW  34  28  80 NW14      29.52S WCI  24
CAMBRIDGE      FLURRIES  37  27  65 W18G24    29.50F
RUSH CITY      CLOUDY    35  28  75 W15G22    29.51S WCI  25
MOOSE LAKE     CLOUDY    32  28  86 NW10G18   29.44S HAZE    WCI  24
HINCKLEY       CLOUDY    34  28  80 W14G20    29.48S WCI  24
CLOQUET        FLURRIES  32  27  80 W14G20    29.41S WCI  22
MCGREGOR       CLOUDY    32  27  80 NW14G22   29.47S WCI  22
$$
MNZ071>073-080-081-089-090-097-098-211500-
   Southwest Minnesota

CITY           SKY/WX    TMP DP  RH WIND       PRES   REMARKS
MONTEVIDEO     CLOUDY    36  28  75 N21G28    29.69S
GRANITE FALLS  CLOUDY    35  27  74 W20G25    29.70S WCI  24
CANBY          CLOUDY    36  25  64 NW23G32   29.73S
MARSHALL       CLOUDY    36  21  55 NW29      29.71R
REDWOOD FALLS  CLOUDY    36  26  67 NW23G33   29.67S
OLIVIA         CLOUDY    34  27  75 NW25G35   29.64S WCI  21
PIPESTONE      MOSUNNY   36  25  64 N24G31    29.74R
WINDOM         SUNNY     36  25  64 W25G32    29.69R
WORTHINGTON    MOSUNNY   36  21  55 NW20G26   29.73S
JACKSON        SUNNY     36  23  60 NW25G33   29.71R
TRACY          CLOUDY    37  26  62 NW25G31   29.71S
SLAYTON        PTSUNNY   35  24  64 NW24G35   29.72S WCI  22
$$
MNZ065>067-074>077-082>085-091>093-211500-
   South Central Minnesota

CITY           SKY/WX    TMP DP  RH WIND       PRES   REMARKS
MANKATO        CLOUDY    36  23  60 W20G32    29.63F
NEW ULM        CLOUDY    36  25  64 NW25G33   29.65S
ST JAMES       CLOUDY    37  25  60 W24G31    29.68S
FAIRMONT       SUNNY     37  21  52 NW23G31   29.68R
GLENCOE        PTSUNNY   37  31  78 W21G31    29.60F
FARIBAULT      CLOUDY    36  27  69 W18G25    29.60S
OWATONNA       CLOUDY    34  27  75 W20G28    29.61S WCI  22
WASECA         CLOUDY    34  27  75 NW20G29   29.64S WCI  22
ALBERT LEA     CLOUDY    36  27  69 NW16G31   29.62R
$$
MNZ078>079-086>088-094>096-211500-
   Southeast Minnesota

CITY           SKY/WX    TMP DP  RH WIND       PRES   REMARKS
ROCHESTER      MIX PCPN  34  26  72 W24G30    29.57R WCI  21
RED WING       CLOUDY    37  23  56 W18G29    29.54S
STANTON        CLOUDY    37  26  64 W21       29.57S
DODGE CENTER   CLOUDY    34  28  80 W23G33    29.58R WCI  22
WINONA         CLOUDY    36  28  75 NW15G25   29.56R
AUSTIN         CLOUDY    34  25  69 NW29G40   29.61R WCI  20
PRESTON        CLOUDY    34  28  77 NW24G36   29.58S WCI  21
$$
ABBREVIATIONS USED IN REMARKS
   TC - TEMPERATURES IN CELSIUS
  WCI - WIND CHILL INDEX
   HX - HEAT INDEX
  VSB - VISIBILITY
$$


USA.gov is the U.S. government's official web portal to all federal, state and local government web resources and services.